Weather in Dipolog

Philippines     8°36′38″N   123°21′08″E
temp.,
°C
wind,
m/s
gust,
m/s
humid.,
%
clouds,
%
prec.,
mm/h
press.,
hPa
HPBL,
m
15 may, sat
sat1523:00+24sse2392100 0.0 1009116
02:00+24sse2492100 0.0 1008128
05:00+24sse2391100 0.3 1008108
08:00+27ese1278100 0.3 1009245
11:00+29nne3466100 0.0 1009800
14:00+29nne3469100 0.0 1007776
17:00+28ne357792 0.0 1007691
20:00+26e2488100 0.0 1009191
16 may, sun
sun1623:00+26se129044 0.0 1009104
02:00+25ese1189100 0.6 100788
05:00+25se1291100 0.1 100888
08:00+27ene2482100 0.1 1009450
11:00+29nne3574100 0.1 1008733
14:00+29nne467490 0.9 1006685
17:00+28ne477882 0.0 1006804
20:00+26ene3887100 0.1 1009436
17 may, mon
mon1723:00+26ene368997 0.1 1009335
02:00+26ene249073 0.4 1007261
05:00+26ene259049 0.8 1007274
08:00+28ne358246 1.0 1009774
11:00+30nne556726 0.1 10081082
14:00+30nne45685 0.1 1006764
17:00+28ne357581 0.0 1006571
20:00+26ese258713 0.0 1008200
18 may, tue
tue1823:00+26ese268793 0.0 1008266
02:00+25ese1390100 0.1 1007173
05:00+25se1291100 1.1 100772
08:00+28e2376100 1.8 1009519
11:00+29nne3373100 0.1 1008821
14:00+29nne3373100 1.8 1006762
17:00+27ne2385100 2.0 1006147
20:00+26se1289100 4.2 100873
19 may, wed
wed1923:00+25se1291100 2.2 100991
02:00+25sse2391100 4.1 100793
05:00+24se3494100 0.6 1008146
08:00+26se1290100 1.3 1009162
11:00+28ese1178100 0.2 1008476
14:00+27nnw1187100 1.4 1007177
17:00+26e1188100 2.1 1007103
20:00+25sse118996 2.6 100968